EUTELSAT 36 WEST A 1 27508U 02040A 21063.78324780 -.00000055 00000-0 00000-0 0 9990 2 27508 2.3628 88.1377 0008119 306.9497 149.8790 0.98292105 67676 METEOSAT-8 (MSG-1) 1 27509U 02040B 21063.62796786 .00000127 00000-0 00000-0 0 9992 2 27509 7.1850 52.9600 0001610 313.6805 63.4554 1.00267344 67908 ARIANE 5 R/B 1 27510U 02040C 21063.56428556 -.00000162 00000-0 42936-3 0 9991 2 27510 5.5056 45.6709 7164500 290.3472 174.4044 2.27209664153730 ARIANE 5 DEB [SYLDA] 1 27511U 02040D 21063.83209992 -.00000178 00000-0 -16946-2 0 9992 2 27511 5.7286 91.7140 7167508 188.5998 124.9060 2.25342805152270 MSG 1 DEB [BAFFLE COVER] 1 39999U 02040F 21063.46244094 .00000032 00000-0 00000-0 0 9995 2 39999 10.6135 26.3800 0096660 67.6900 51.5566 1.01965318 22401